sat.trackr.live / text

‹ back to catalog

STARLINK-35915

NORAD 66521 · 2025-265F

PAYLOAD ACTIVE UNKNOWN

§ Identity

Operator
Country
US
Launch date
2025-11-19
Launch site
AFETR
Launch vehicle
Mass (kg)
RCS (m²)

Purposes: comms

External: N2YO · Heavens-Above · Gunter

§ Orbital elements

Epoch: 2026-05-25T04:44:31.886592Z

Period
94.27 min
Inclination
42.9975°
Eccentricity
0.0001331
Mean motion
15.27591172 rev/d
Perigee alt
482.1 km
Apogee alt
483.9 km
Semi-major
6,861.2 km
B*
7.5257e-4
RAAN
205.9196°
Arg perigee
275.9071°
Mean anomaly
84.1629°
Rev number
2,881

§ Raw data

STARLINK-359151 66521U 25265F   26145.19759128  .00020512  00000+0  75257-3 0  99982 66521  42.9975 205.9196 0001331 275.9071  84.1629 15.27591172 28818

JSON: /api/v1/satellites/66521 · /tle

For live sub-satellite position, see the globe view (requires WebGL).

§ Visibility from observer

Set your observer location to see the next 7 days of passes ≥ 10°. The values pass through the URL so the page stays shareable.

No JS? Fill the form by hand. The geolocation button needs JavaScript.